Regional Weather Roundup
Issued by NWS

Home | Current Version | Previous Version | Text Only | Print | Product List | Glossary Off
Versions: 1 2 3 4 5 6 7 8 9 10 11 12 13 14 15 16 17 18 19 20 21 22 23 24 25 26 27 28 29 30 31 32 33 34 35 36 37 38 39 40 41 42 43 44 45 46 47 48 49 50

640
ASUS45 KBOU 241307
RWRCO

WEATHER ROUNDUP FOR COLORADO
NATIONAL WEATHER SERVICE DENVER/BOULDER CO
700 AM MDT MON APR 24 2017

NOTE: "FAIR" INDICATES FEW OR NO CLOUDS BELOW 12000 FEET WITH NO
SIGNIFICANT WEATHER AND/OR OBSTRUCTIONS TO VISIBILITY.

COZ001>005-013-030-031-241400-
...NORTHWEST COLORADO...

CITY           SKY/WX    TMP DP  RH WIND       PRES   REMARKS
CRAIG          CLOUDY    42  36  79 E5        29.84R
HAYDEN         CLOUDY    39  34  81 SE3       29.85R
MEEKER         MOCLDY    40  37  89 CALM      29.84R
MOUNT WERNER   NOT AVBL
STEAMBOAT SPGS MOCLDY    37  36  96 E7        29.84S
WALDEN           N/A     34  32  93 SW7       29.84R WCI  28
$$

COZ006>008-011-241400-
...WEST CENTRAL VALLEYS...

CITY           SKY/WX    TMP DP  RH WIND       PRES   REMARKS
GRAND JUNCTION FAIR      48  32  53 NE3       29.78R
MONTROSE       FAIR      49  29  46 NE5       29.84R
EAGLE          PTCLDY    39  34  81 CALM      29.86R
RIFLE          CLOUDY    46  37  71 SE3       29.81R
DELTA          FAIR      50  30  45 N6        29.81R
NUCLA          FAIR      45  28  53 E7        29.88R
$$

COZ017>023-064>068-241400-
...SOUTHWEST COLORADO...

CITY           SKY/WX    TMP DP  RH WIND       PRES   REMARKS
DURANGO        FAIR      33  21  61 N3        29.88S
CORTEZ         FAIR      36  26  67 NE3       29.86R
PAGOSA SPRINGS FAIR      38  22  51 CALM      29.93S THUNDER
TELLURIDE      FAIR      41  22  46 SE5       29.97S
WOLF CREEK PAS FAIR      28  18  64 S13G20    30.10R WCI  18
$$

COZ009-010-012-014-032>034-037-058>063-241400-
...CENTRAL COLORADO...

CITY           SKY/WX    TMP DP  RH WIND       PRES   REMARKS
ASPEN          FAIR      37  34  89 S6        29.85S
BUENA VISTA    FAIR      48  21  34 NW14G35   29.82S
COPPER MTN     SNOW      32  21  64 W24G35    29.95S VSB 1/2 WCI  19
BERTHOUD PASS  MOCLDY    23  12  63 W33G45    29.90R WCI   5
COTTONWOOD PAS FAIR      43  19  39 W30G46    29.83F
GUNNISON       FAIR      36  29  75 CALM      29.89R
KREMMLING      FAIR      41  36  81 W7        29.85R
LEADVILLE      FAIR      31  26  82 E7        29.89S WCI  24
MONARCH PASS   FAIR      30  23  74 W35G46    30.09R WCI  14
SALIDA         FAIR      50  24  37 E6        29.90R
SUNLIGHT       FAIR      28  27  93 SW12G22   29.98R WCI  18
WILKERSON PASS FAIR      32  21  64 W14G25    29.91R WCI  22
$$

COZ069>075-241400-
...SAN LUIS VALLEY/SANGRE DE CRISTO MOUNTAINS...

CITY           SKY/WX    TMP DP  RH WIND       PRES   REMARKS
ALAMOSA        FAIR      45  19  35 SE5       29.88R
LA VETA PASS   FAIR      39  18  41 S26G43    30.03F
SAGUACHE       FAIR      43  23  45 W12       29.87R
$$

COZ035-036-038>040-241400-
...NORTHERN COLORADO FRONT RANGE...

CITY           SKY/WX    TMP DP  RH WIND       PRES   REMARKS
DENVER INTL AP FAIR      44  36  73 SE8       29.69R
DMNS CITY PARK   N/A     53  37  54 E12       29.67S
AURORA         PTCLDY    46  36  68 E9        29.70R
FRONT RANGE AP MOCLDY    46  37  71 SE5       29.72R
ERIE MUNI ARPT FAIR      50  37  62 E8        29.67R
BOULDER MUN AP FAIR      50  37  62 N6        29.69R
CENTENNIAL     FAIR      48  34  58 E6        29.70R
BROOMFIELD     MOCLDY    55  32  41 W6        29.70R
FORT COLLINS   FAIR      49  37  63 N8        29.68R
LONGMONT       MOCLDY    52  39  61 CALM      29.70R
$$

COZ041-046-047-076>085-087-088-241400-
...PIKES PEAK/PALMER DIVIDE AND SOUTHERN FOOTHILLS...

CITY           SKY/WX    TMP DP  RH WIND       PRES   REMARKS
COLO. SPRINGS  MOCLDY    55  28  35 NE8       29.72S
A. F. ACADEMY  FAIR      51  27  38 NE14      29.71S
SCHRIEVER AFB  FAIR      51  29  43 NW12      29.73R
ELLICOTT       FAIR     N/A N/A N/A NE12      29.71R
FALCON         FAIR      48  29  48 NW6       29.77S
FORT CARSON    FAIR      60  23  23 SW12G22   29.70S
LIMON          FAIR      48  38  68 NW6       29.69R
MONUMENT HILL  FAIR      43  30  61 S5        29.77S
TRINIDAD       FAIR      56  21  25 SW14      29.75R
$$

COZ042>045-048>051-090-091-241400-
...NORTHEAST COLORADO...

CITY           SKY/WX    TMP DP  RH WIND       PRES   REMARKS
GREELEY ARPT   FAIR      50  38  63 NW13      29.69R
AKRON          FAIR      50  38  63 N14       29.61F
BURLINGTON     NOT AVBL
WRAY           NOT AVBL
STERLING       PTSUNNY   54  37  54 N16       29.62F
HOLYOKE        FAIR      54  43  66 NW7       29.61R
FORT MORGAN    FAIR      51  37  58 N15       29.66R
$$

COZ086-089-092>099-241400-
...SOUTHEAST COLORADO...

CITY           SKY/WX    TMP DP  RH WIND       PRES   REMARKS
PUEBLO         FAIR      51  37  58 NW7       29.67R
LA JUNTA       FAIR      58  34  40 NW10      29.68R
LAMAR          FAIR      58  36  43 NW17      29.64R
SPRINGFIELD      N/A     51  34  52 SW15      29.68R
$$




USA.gov is the U.S. government's official web portal to all federal, state and local government web resources and services.